GFSWCAN_con_3kmhel_225.txt.gz
Helicity
83 39 26 35 69 78 47 44 36 34 41 46 55 72 92 116 120 252 301 265 355 327 356 356 441 478 459 449 365 475 428 449 496 465 503 669 737 725 592 524 515 492 500 481 413 415 411 378 415 400 403 281 241 228
13 48 78 68 54 60 73 49 35 30 28 43 49 60 75 87 101 184 354 259 286 217 260 183 168 220 304 349 467 498 485 448 429 552 667 635 551 532 583 466 499 510 641 659 566 608 542 245 203 249 257 270 284 290
-23 -11 7 33 53 57 71 74 49 14 21 16 12 39 67 88 100 155 386 364 356 204 129 138 176 163 103 132 228 450 487 569 485 282 268 282 329 402 387 482 460 433 509 480 443 328 305 360 327 365 328 361 310 302
-33 -27 -24 -15 1 21 36 59 69 29 33 26 38 65 72 70 70 127 392 352 350 242 119 -9 45 44 128 79 3 40 217 220 254 380 386 343 400 454 406 385 328 358 210 301 406 375 359 315 307 306 273 320 334 253
10 5 -9 -19 -9 17 25 24 43 31 41 43 65 67 72 50 41 151 328 287 274 214 148 122 116 124 124 51 -7 13 -82 -4 99 141 255 335 263 278 300 314 440 406 347 355 358 225 262 266 269 236 173 74 53 168
40 35 9 -10 29 65 58 52 47 42 28 51 65 63 42 44 37 336 297 219 231 217 189 163 97 95 69 61 60 30 49 62 78 -6 -8 -137 33 13 110 106 99 54 140 166 175 149 150 165 162 169 157 172 219 226
82 65 26 -1 61 108 96 81 52 33 30 39 33 33 43 32 55 255 213 177 282 329 185 153 118 110 113 92 90 125 135 174 141 124 98 102 42 55 164 173 181 116 60 76 115 104 136 148 110 118 224 291 319 373
70 48 0 29 51 54 45 21 15 25 24 28 21 21 54 178 231 296 180 118 426 228 120 119 104 103 96 87 69 74 106 142 108 152 164 174 135 128 94 75 63 51 67 104 67 82 98 141 131 206 280 328 351 431
8 13 20 24 14 16 -14 -39 -16 21 43 30 146 255 216 192 190 215 46 157 205 157 112 53 37 44 67 90 86 56 59 90 97 99 133 96 120 120 20 3 34 69 132 131 142 105 94 102 159 177 253 348 467 521
-11 0 1 20 19 17 25 24 132 149 69 267 236 186 160 193 120 207 184 154 108 137 151 53 119 103 83 84 47 54 55 70 66 76 88 161 180 67 95 93 96 124 102 92 138 158 176 182 228 247 303 412 397 406
-25 -17 -22 0 19 34 70 138 167 140 204 212 142 188 246 124 154 156 149 166 105 119 85 58 138 148 103 115 76 59 89 63 80 75 84 82 82 83 40 30 53 69 79 92 97 145 133 167 296 329 337 325 364 350
-4 0 2 -1 -9 -4 5 -21 41 121 168 141 211 163 156 94 75 65 105 116 91 58 65 88 153 166 168 146 99 74 88 93 82 101 72 50 45 28 35 37 82 95 113 162 147 172 190 203 180 197 229 226 163 125
12 4 -5 -19 -38 -67 16 0 24 78 106 142 122 113 106 87 88 46 39 75 79 88 46 84 76 87 141 146 112 77 58 71 111 87 86 65 13 44 64 75 124 133 177 212 223 225 180 168 187 185 197 137 97 124
7 19 30 5 35 -41 -5 93 100 112 83 97 49 13 18 22 19 -4 11 38 76 35 70 79 84 51 57 63 58 69 105 113 105 118 89 36 49 34 54 67 113 130 137 144 136 130 164 201 209 199 176 128 104 95
60 5 12 42 59 15 57 186 173 73 60 -12 -20 -52 -22 -1 20 51 20 18 38 54 100 120 71 52 81 81 70 109 112 112 122 90 62 63 40 39 68 82 89 102 95 107 85 128 150 158 152 124 104 101 89 76
2 4 24 63 42 27 45 100 54 33 -34 -50 -52 -44 -32 -29 -23 -5 2 18 57 96 102 132 62 -47 -24 -27 -24 -12 -17 -25 -84 -8 61 42 50 55 58 87 88 89 106 72 76 70 75 84 83 88 98 108 110 111
-48 -37 53 38 29 -4 -15 -19 5 7 -30 -27 -32 -31 -19 -24 -34 -41 -23 -8 67 73 14 -31 -87 -60 -57 -52 -42 -14 -37 -34 0 38 34 51 60 65 49 52 60 66 61 52 67 79 85 91 104 118 135 125 132 131
-38 3 91 73 49 31 24 31 28 43 22 37 -13 -34 -74 -57 -47 -42 -45 8 29 8 36 13 110 -55 -55 -44 -20 5 25 56 48 40 41 37 46 62 70 79 73 73 81 86 96 103 114 129 139 131 129 117 114 116
26 55 51 38 17 -30 -46 -29 55 12 28 28 25 33 42 50 5 -17 -21 82 74 80 48 57 28 2 6 12 35 37 51 47 40 33 31 30 42 66 79 80 84 105 115 116 126 133 135 136 124 117 112 101 91 92
71 53 56 27 1 -33 -40 -45 -37 -42 -48 2 70 65 82 74 65 52 34 47 37 61 25 18 8 9 16 14 16 9 19 25 50 67 65 72 83 102 92 97 98 114 146 149 141 129 117 107 91 82 83 89 96 115
64 52 90 94 75 24 -11 -10 -5 -10 1 6 9 6 52 88 96 82 69 22 66 66 14 -21 -30 -33 -30 -9 -14 -15 14 11 18 58 68 86 76 99 103 107 112 103 100 92 96 92 97 101 94 95 98 104 111 125
56 76 65 82 102 99 24 -11 -1 28 32 43 66 10 -33 -52 -61 -41 72 26 -38 -9 -28 -34 -36 -58 -62 -39 -20 -13 26 52 86 111 103 108 74 91 95 96 108 100 99 97 103 112 114 108 98 102 116 132 142 153
82 73 81 81 86 90 44 89 52 26 24 33 62 41 2 -14 -21 -18 -31 -29 -13 -7 -26 -36 -35 4 9 37 56 79 88 117 118 95 93 76 68 75 98 92 99 121 117 104 116 123 120 107 123 138 137 142 145 150
93 101 96 86 105 93 98 73 74 74 62 15 15 28 14 13 4 18 27 21 26 4 10 16 73 89 85 78 74 89 105 118 138 119 93 103 102 98 96 104 103 93 102 133 134 136 131 134 134 141 137 143 140 139
153 101 126 116 129 138 117 110 104 77 50 24 6 8 -9 -7 -11 10 20 22 8 -1 -4 22 29 30 54 83 107 104 95 101 126 111 84 107 163 164 153 138 120 117 126 156 140 139 132 129 133 136 137 138 145 137
152 129 120 100 118 114 102 98 90 100 99 74 10 46 41 -1 -16 7 5 -24 -31 -2 59 71 56 44 37 60 94 78 71 94 126 128 110 95 106 125 118 127 127 106 112 127 148 135 129 130 138 148 151 139 125 120
185 166 159 153 148 116 114 123 122 114 86 69 59 78 59 32 -15 1 12 11 14 5 46 59 54 42 61 95 104 100 96 83 103 123 142 117 91 75 87 95 88 103 136 139 132 128 131 138 148 149 147 117 92 75
184 175 164 123 138 126 96 94 78 52 69 74 100 66 36 26 21 13 23 30 18 43 102 111 103 99 100 107 125 157 181 197 222 231 218 187 138 101 89 103 132 177 161 141 133 132 138 146 153 142 122 113 87 48
194 176 178 169 165 114 77 71 67 68 64 76 70 65 60 42 33 41 37 34 40 84 105 117 125 140 176 164 153 149 162 153 170 130 104 92 85 79 87 130 157 155 143 146 141 130 134 137 138 141 124 103 73 45
149 151 158 155 128 95 93 75 69 78 88 84 82 69 52 45 49 57 49 42 46 47 57 70 89 107 120 129 113 91 68 51 53 75 86 65 57 104 117 139 142 129 123 148 171 195 203 199 195 159 129 91 61 44
156 160 149 137 119 120 104 99 102 98 103 89 76 64 57 53 58 55 51 52 75 90 100 88 79 75 116 98 87 83 37 20 42 51 52 87 132 132 117 120 124 121 126 136 139 149 160 150 143 132 109 85 51 33
136 131 138 133 127 103 104 134 131 122 127 111 100 90 77 68 63 46 44 74 76 61 48 81 81 32 43 83 87 82 69 112 79 61 82 110 125 123 127 125 118 124 126 125 122 131 134 132 113 104 90 68 40 27
117 122 131 123 114 115 121 131 136 127 132 115 102 96 92 85 68 67 65 48 42 45 72 92 117 157 129 133 136 112 141 158 119 95 106 134 149 137 122 111 105 107 112 99 101 100 104 106 96 85 75 62 46 26

GFSWCAN_con_3kmhel_228.txt.gz
Helicity
19 48 68 77 93 87 103 100 101 63 64 64 58 71 73 77 72 79 163 167 300 280 258 320 338 343 378 411 263 271 212 267 293 256 341 203 340 460 491 193 232 426 558 453 371 384 323 267 287 388 406 220 219 173
21 12 14 46 66 88 79 88 69 65 78 80 71 64 71 77 80 134 182 168 181 264 283 256 278 292 407 449 449 467 405 351 424 297 263 260 130 449 415 304 248 428 650 534 548 617 552 349 220 158 126 175 237 212
29 24 22 16 17 37 72 72 75 61 52 61 63 63 59 63 60 109 259 315 319 243 160 164 196 148 143 153 165 317 294 368 513 598 513 452 600 548 485 405 387 398 381 368 519 480 334 414 343 417 370 322 299 235
25 43 52 35 21 26 30 48 64 70 51 43 44 58 67 69 56 125 293 302 284 214 242 196 125 186 202 114 74 131 142 153 117 48 52 92 117 173 426 360 322 313 294 309 364 343 377 409 353 280 232 271 339 291
42 41 40 36 18 4 2 21 41 59 53 34 34 23 16 20 21 184 298 237 195 164 188 159 112 114 117 74 -26 -35 28 35 150 178 247 255 276 262 259 234 310 275 322 249 264 438 332 301 263 215 277 238 176 166
98 91 55 12 -10 -11 15 34 48 63 42 34 25 11 19 7 21 342 253 147 192 173 213 223 138 110 67 62 49 63 31 34 -43 -81 52 -17 -2 88 209 282 261 241 138 117 154 143 188 227 141 176 265 226 157 165
73 69 33 -19 39 43 41 61 58 47 28 48 50 43 25 16 178 225 181 141 235 218 195 197 155 130 117 102 96 82 63 132 109 63 -138 -62 -79 40 87 232 95 57 39 75 113 90 45 59 123 31 2 52 126 102
25 25 50 55 40 24 47 62 43 40 42 49 52 30 39 185 254 195 157 87 260 244 160 177 179 96 72 121 128 113 105 102 108 158 152 99 108 158 67 -50 -34 4 50 108 98 58 56 64 72 96 149 158 128 122
-25 1 -7 -9 -1 -8 -4 6 10 19 34 62 171 162 226 155 126 138 138 196 218 191 119 95 101 113 63 97 96 89 93 103 77 111 121 125 153 192 58 39 25 11 12 19 60 52 51 73 78 97 126 129 124 195
-17 -19 -28 -52 -52 -47 -41 23 87 117 127 134 171 65 83 127 137 233 190 142 121 191 157 66 51 77 51 35 44 42 47 67 89 39 68 92 91 31 28 49 77 83 75 55 69 47 62 66 95 87 99 124 152 233
-13 -4 18 24 32 45 107 78 101 59 29 89 94 138 165 192 252 216 98 115 78 88 71 61 56 85 69 61 55 36 72 78 93 97 91 72 86 36 44 46 58 63 55 49 58 66 104 117 97 104 220 271 309 300
-5 -3 10 1 -30 -34 -19 15 85 128 61 64 92 114 147 90 84 84 128 117 91 66 68 69 72 115 106 128 82 91 64 61 57 106 95 115 55 50 63 74 84 82 76 89 98 123 153 166 184 223 237 236 263 281
4 0 9 3 3 -15 51 116 125 85 79 143 110 84 68 59 74 75 104 104 75 61 50 42 77 120 137 114 115 92 52 66 120 91 99 81 83 68 60 75 88 94 106 123 163 174 194 198 181 163 190 209 166 125
19 4 31 49 -21 6 223 177 88 91 71 121 62 3 50 53 59 39 38 49 85 67 56 35 91 91 119 55 85 98 104 111 107 104 87 69 90 79 78 77 75 115 128 146 165 167 184 180 204 208 176 98 87 94
5 27 27 63 58 53 148 190 128 97 54 13 19 -18 -18 30 48 30 33 48 65 54 60 85 98 61 68 50 59 78 92 98 102 84 85 61 32 45 61 84 94 100 116 132 105 100 101 110 123 142 127 103 86 83
24 0 28 52 -3 26 79 101 74 36 2 -18 -29 -29 -27 -22 -26 -11 0 -2 37 48 68 88 76 -5 -36 -7 -51 -43 -28 -4 -33 -14 85 81 59 44 84 82 65 61 79 82 79 58 62 73 79 92 101 102 104 105
-23 -7 71 64 55 31 33 26 43 36 -11 -42 -40 -24 -32 -26 -34 -46 -49 -38 30 30 -7 -20 -43 -32 -7 -73 -42 0 5 -45 77 82 75 53 42 63 54 40 51 45 47 46 63 83 91 86 87 98 119 122 124 124
8 50 83 71 38 -3 13 29 30 40 -1 27 4 -37 -38 -16 -25 -33 -37 -33 -5 10 0 10 54 -14 -41 -74 -71 -61 92 100 68 82 52 38 42 45 47 65 58 53 64 74 82 91 98 103 117 121 121 113 99 90
87 88 84 77 53 24 -35 -29 9 -40 -35 42 47 44 35 5 -29 -15 -33 -38 -14 -1 3 5 5 55 30 65 45 46 65 64 60 56 32 22 32 57 70 74 80 93 106 101 101 109 120 127 116 102 91 79 74 78
96 85 33 75 -3 -1 -6 -15 38 -30 -35 -28 26 34 29 42 60 52 59 67 51 48 22 49 58 20 21 27 24 23 44 38 52 53 58 63 70 87 83 71 78 89 106 120 120 110 100 96 90 82 81 83 77 76
75 55 78 46 57 93 93 39 11 -24 -19 -28 -20 -16 17 65 68 91 88 93 20 6 16 -4 -15 13 33 23 18 26 23 29 24 36 63 77 74 77 80 86 92 84 81 75 79 88 87 83 75 71 65 69 81 98
94 93 81 73 87 98 80 65 50 34 -9 -4 16 27 2 -27 -39 -26 81 36 -8 -20 -13 -11 -26 -44 -41 -27 -18 -2 24 40 53 74 103 102 82 73 74 75 77 74 78 82 81 82 83 83 81 77 80 92 109 134
125 102 103 96 95 82 54 82 62 60 14 -4 20 37 32 7 -23 -33 -34 -32 -16 -22 -28 -34 4 5 -41 -12 19 42 57 72 74 84 87 76 74 64 66 69 74 87 94 92 96 98 107 101 94 96 110 124 137 146
112 131 110 89 99 99 86 64 70 69 61 19 -2 10 -2 16 6 22 20 8 28 -6 0 11 27 48 65 29 31 64 83 83 113 121 84 84 82 78 78 88 95 96 99 111 118 123 112 110 105 124 135 147 164 163
152 102 126 136 131 119 87 92 89 60 46 18 4 17 -4 0 11 23 10 13 14 14 4 12 17 8 22 56 87 100 109 105 111 116 85 78 117 123 124 116 115 109 107 121 120 123 124 123 125 137 152 165 167 151
161 123 122 115 137 118 100 80 71 96 96 70 20 38 35 13 6 11 16 27 13 -1 34 87 103 96 92 73 111 114 101 98 102 103 94 88 86 89 101 105 100 95 100 110 126 133 136 132 143 167 179 175 153 131
191 152 166 184 169 134 112 106 109 104 72 62 53 46 22 -1 -2 19 26 36 39 47 33 28 36 36 62 123 136 136 131 118 104 98 131 152 128 86 66 70 79 102 126 131 129 126 135 144 165 175 177 151 121 97
192 168 155 130 147 121 103 90 82 54 66 64 68 45 27 18 29 27 32 44 50 48 86 124 112 85 87 107 124 135 146 135 150 177 189 171 133 106 91 99 122 148 146 134 132 131 141 153 161 165 152 138 112 72
202 184 170 182 185 134 96 69 68 72 69 60 59 58 54 54 45 35 39 45 40 46 75 100 113 111 128 135 120 95 92 110 137 125 110 99 88 77 89 108 125 133 132 138 146 145 152 148 143 142 144 124 97 63
143 138 159 150 160 132 110 88 86 75 85 95 86 68 48 42 42 47 42 39 35 37 56 64 70 56 78 93 96 85 71 55 41 56 63 59 58 91 97 110 119 117 118 132 152 174 179 176 172 145 135 110 84 61
150 115 146 137 149 144 120 104 103 95 92 75 72 68 66 48 37 45 47 48 52 59 58 42 37 36 64 70 69 69 43 31 55 62 58 85 99 110 113 115 117 117 120 128 132 134 137 139 128 125 114 104 80 50
96 124 135 136 124 99 96 111 109 102 101 93 87 77 57 50 56 36 48 57 49 38 26 26 29 19 21 41 53 54 57 76 67 68 77 87 106 120 127 126 119 114 121 124 126 121 123 119 109 108 105 92 68 48
104 105 125 116 108 108 115 118 114 110 111 98 94 99 94 93 80 57 55 58 50 49 47 50 60 72 75 74 83 84 110 125 108 93 93 114 140 136 124 110 107 115 126 121 112 105 111 106 99 97 92 85 71 52

GFSWCAN_con_3kmhel_231.txt.gz
Helicity
25 24 16 25 64 76 88 113 71 8 -6 16 44 -5 -27 -8 71 242 304 303 337 325 332 378 413 416 354 283 227 273 316 281 243 226 244 267 286 350 292 154 132 287 392 347 310 319 235 222 194 169 310 129 80 187
27 10 30 16 32 67 67 94 106 63 29 26 35 38 31 -15 -64 72 116 157 203 183 158 202 186 308 377 377 310 390 409 381 351 225 233 191 227 309 226 191 142 181 414 440 468 552 420 227 130 111 110 100 88 114
51 46 21 19 14 32 59 65 85 87 65 53 74 84 87 68 15 129 117 62 191 247 214 178 184 127 90 162 205 226 307 347 434 449 413 362 371 370 454 235 157 267 201 304 213 308 244 168 153 171 85 204 301 256
68 92 69 30 11 -2 34 55 61 70 58 66 79 80 87 75 56 182 221 190 167 128 173 159 107 139 59 69 79 90 159 178 197 220 228 315 261 106 130 318 363 453 543 429 350 463 593 434 527 487 463 291 207 219
50 69 75 37 9 1 4 33 52 55 54 53 58 67 72 58 58 217 183 116 106 179 54 48 122 134 117 42 16 49 59 57 72 38 50 124 150 77 89 163 299 281 221 273 322 180 190 145 134 202 189 158 305 335
71 67 61 14 -4 -6 -0 19 55 80 82 56 53 61 71 85 173 274 196 113 102 91 193 184 108 111 92 164 152 157 135 188 173 137 123 108 59 -48 -127 -127 -59 66 157 149 90 96 134 172 215 164 91 82 78 130
45 53 46 24 64 50 50 34 51 79 75 54 49 51 56 132 229 214 174 110 56 75 156 139 80 139 142 109 127 100 70 121 139 151 167 183 144 70 162 171 76 84 10 52 100 112 103 68 87 50 52 51 70 76
48 23 64 83 83 83 65 63 60 59 52 51 48 42 67 237 265 212 166 24 89 127 126 174 173 96 65 136 153 117 114 128 104 131 112 128 99 194 172 125 59 52 46 109 118 115 100 87 102 117 137 147 150 118
14 -24 -9 16 50 71 62 47 37 57 101 140 201 235 284 210 189 136 58 161 214 132 86 91 92 115 60 106 112 97 115 116 82 116 114 85 104 133 34 49 59 93 101 85 94 79 73 71 73 92 122 160 168 143
45 20 -39 -52 -34 -24 -3 26 96 127 143 196 237 185 164 155 119 216 196 217 156 106 74 51 27 70 43 63 62 58 59 73 62 33 78 111 83 6 -19 -19 -2 44 67 96 124 115 99 74 70 64 77 95 144 109
91 80 61 15 24 25 38 71 102 110 144 142 163 166 174 162 168 131 139 108 82 71 48 64 47 55 49 63 53 26 42 32 48 56 77 61 46 49 128 87 61 67 80 63 41 38 41 56 92 125 205 234 189 210
58 27 13 29 43 67 44 8 35 32 10 60 90 141 123 94 77 79 124 120 73 55 41 46 81 123 110 108 86 69 66 64 58 98 68 50 39 95 56 53 72 69 71 70 77 103 204 221 195 167 173 183 203 203
13 41 -24 18 62 17 52 -37 -28 -81 -31 66 150 66 57 55 71 81 102 120 78 71 54 65 122 138 96 80 87 78 71 80 114 88 86 55 102 121 82 77 92 132 132 149 161 173 170 173 192 203 223 243 268 278
4 -10 -36 16 100 78 22 81 103 137 134 74 62 49 50 53 52 70 71 82 132 88 68 102 99 78 96 92 96 116 105 98 85 74 43 53 145 82 80 89 103 104 108 121 139 137 145 156 164 191 214 195 137 132
-23 -0 -71 2 103 153 156 133 113 86 106 35 49 -3 49 56 69 64 62 57 104 104 131 119 86 58 60 88 89 79 77 77 58 54 91 104 104 104 100 113 102 112 112 117 122 132 118 101 111 133 110 89 106 101
56 -29 -84 12 40 104 135 146 84 46 23 -6 -24 -39 -11 45 46 52 46 53 48 57 67 84 81 59 56 75 83 76 98 75 -14 -18 95 78 97 100 85 92 107 100 73 68 71 75 70 67 67 76 83 87 93 98
88 -16 41 52 49 61 51 45 46 37 47 -38 -37 7 -21 2 4 22 53 46 24 47 21 25 -25 -27 43 -31 -19 -27 -25 -24 70 77 59 64 87 76 75 88 72 59 50 64 69 76 82 75 65 77 97 100 107 107
21 17 34 79 68 -6 3 18 28 63 38 52 50 39 35 30 16 11 8 69 62 16 8 11 44 -29 -26 -56 -71 -64 -45 66 87 77 57 83 95 69 61 65 58 65 92 98 87 90 97 90 102 104 100 90 76 80
82 83 107 91 39 19 28 7 8 -49 -24 62 63 58 60 50 36 46 22 -6 -5 26 64 15 -43 -13 6 -35 -5 46 99 69 54 73 87 73 57 67 71 72 79 86 86 82 94 104 110 122 109 97 86 80 87 95
126 120 87 92 54 37 28 27 45 -64 -75 3 56 44 41 33 33 33 28 58 -7 58 -27 10 27 48 56 68 66 58 67 63 74 52 49 50 56 66 77 76 84 92 103 113 118 102 96 98 103 102 100 96 97 96
115 71 86 84 69 88 107 73 28 52 38 -45 -6 -7 36 30 -8 10 66 118 -15 -47 -38 -18 17 60 88 79 51 46 48 33 22 22 53 77 74 82 89 98 92 90 87 84 83 91 92 93 86 90 87 93 88 94
114 97 81 79 86 87 82 81 79 81 29 5 -8 -34 -42 -49 -4 4 49 49 73 -38 -41 -25 -35 -17 5 23 22 31 24 34 42 76 99 110 96 93 80 72 67 63 75 77 84 87 81 87 91 91 82 71 77 89
131 98 102 84 84 82 65 104 55 43 15 -7 2 -42 -20 -16 -11 49 1 -24 -18 -49 -31 -31 -33 -37 43 63 37 48 13 29 54 75 95 80 78 75 80 65 70 84 94 97 113 96 94 97 98 89 80 73 84 103
130 151 133 98 103 108 86 72 70 56 43 17 -22 -13 -13 -5 -4 3 26 21 -3 -12 -30 -36 -5 90 68 41 37 39 42 41 69 102 92 86 71 72 78 74 92 96 107 106 94 104 89 98 81 88 92 112 131 160
142 105 131 132 133 121 83 83 66 52 35 19 -10 10 11 4 7 20 36 24 10 -5 -14 -3 11 5 -16 -12 18 45 64 74 94 103 89 46 98 95 96 108 111 114 112 104 101 98 95 89 95 107 127 146 177 180
138 115 108 99 126 131 105 92 70 67 55 44 36 46 53 19 11 -0 11 22 16 10 30 32 21 13 4 23 68 98 88 106 130 137 86 84 85 71 85 99 103 84 79 101 99 101 100 107 130 149 173 194 195 177
171 139 148 171 144 121 115 105 75 83 75 55 61 53 24 8 6 23 39 52 49 66 63 61 53 60 72 98 113 133 119 150 147 171 125 127 119 98 85 76 72 104 93 105 102 110 124 138 153 164 196 181 169 150
173 172 150 111 134 98 92 69 75 60 63 74 62 46 35 31 42 47 45 43 68 76 114 141 154 151 183 266 244 249 249 248 295 226 187 170 159 158 160 162 150 133 120 113 123 127 130 143 162 171 185 181 151 104
202 155 135 144 145 138 97 72 67 75 82 73 74 64 64 62 56 48 42 42 36 42 71 108 156 205 235 165 137 123 120 125 140 131 125 127 117 110 112 110 116 121 131 152 163 145 151 163 167 181 166 150 121 75
110 125 136 120 155 125 111 98 103 108 85 99 98 74 51 42 44 35 32 33 39 50 67 86 96 102 110 124 141 137 117 91 68 77 82 79 89 99 94 97 105 113 120 134 156 191 219 211 212 172 143 129 108 87
141 109 160 129 140 149 140 97 96 77 70 68 76 86 79 60 39 29 35 49 70 74 67 68 69 75 78 84 87 99 94 91 113 121 129 154 110 94 95 103 105 111 116 124 136 150 160 148 137 134 120 116 106 80
133 122 110 112 111 96 102 111 97 91 83 82 68 67 50 53 64 40 40 53 51 51 46 52 56 50 59 78 90 100 103 102 95 90 99 99 98 104 108 108 106 97 110 129 143 142 133 124 115 111 111 107 95 82
71 74 87 105 122 112 109 109 91 83 90 92 80 90 86 90 79 57 47 73 78 62 68 73 84 93 88 90 94 104 108 118 105 98 101 113 115 113 104 96 98 108 128 134 129 124 116 119 111 105 103 104 97 85

GFSWCAN_con_3kmhel_237.txt.gz
Helicity
54 38 20 11 7 12 15 6 25 12 -15 52 142 752 276 207 223 361 526 507 420 550 581 478 490 481 449 331 379 442 472 458 570 405 425 462 403 458 423 295 358 488 531 491 445 416 262 350 290 200 270 211 152 103
44 45 41 17 7 15 25 -5 32 32 8 57 61 551 785 422 289 485 663 651 467 636 552 560 478 600 614 570 471 635 576 538 502 495 448 445 445 523 419 322 385 468 598 501 618 591 507 342 278 205 267 114 116 67
31 45 18 1 1 19 15 -11 4 21 22 53 33 145 613 487 508 480 690 798 833 732 672 740 747 571 607 701 541 505 576 460 566 562 526 453 346 477 375 394 430 394 457 480 628 379 377 358 259 225 158 182 165 123
41 51 40 21 0 41 -12 -10 -7 -21 13 -12 52 92 122 359 566 754 873 819 672 757 643 772 457 411 244 263 369 457 479 500 513 589 522 500 523 428 527 575 502 651 732 660 557 294 271 201 187 115 74 92 123 -24
85 105 18 12 41 52 -9 -36 6 -16 -5 -64 -24 132 161 97 221 472 808 1071 896 672 537 592 484 467 362 368 354 373 447 424 571 645 620 640 530 357 269 275 267 275 318 294 254 159 105 76 95 44 -25 -43 1 -20
110 66 -2 33 41 27 5 -31 1 10 6 -25 -58 -29 92 76 142 508 742 442 550 690 578 629 576 402 390 299 277 298 230 297 377 411 312 271 162 171 232 195 27 -12 17 103 126 119 98 67 58 47 20 -22 -32 27
57 53 34 15 28 26 7 3 -6 8 18 15 -13 -14 -13 6 50 248 317 145 166 317 412 543 508 342 179 97 114 2 54 82 105 115 99 68 48 25 47 131 54 129 128 83 58 36 45 79 70 111 134 128 130 159
-26 36 50 36 10 4 0 21 12 17 30 36 55 75 75 79 69 110 102 57 65 154 201 282 285 200 167 161 152 112 135 109 104 92 80 65 99 87 55 -23 82 93 118 132 122 116 119 93 115 139 128 145 169 177
-10 -33 -21 6 9 -5 -6 2 29 48 63 82 98 102 79 100 138 97 56 102 124 82 102 88 87 128 109 181 153 163 127 138 109 126 127 121 125 91 35 63 57 136 144 140 148 137 136 126 110 100 83 111 118 120
35 -12 -36 -33 -21 -4 3 20 52 75 95 93 32 53 80 75 -23 29 82 69 91 132 139 133 101 120 97 135 164 153 136 135 125 107 83 80 92 60 54 47 70 88 113 108 83 78 79 97 118 162 165 175 203 224
52 59 32 10 17 30 51 43 58 25 20 -6 41 92 41 5 42 64 95 115 113 151 103 119 81 61 37 100 121 111 101 100 141 84 82 84 96 67 88 123 137 154 132 145 113 122 127 120 112 126 173 190 185 169
74 50 56 53 19 -28 44 31 -4 0 -71 -10 39 16 14 37 78 93 102 76 87 117 109 99 71 108 78 81 132 104 127 102 151 45 87 90 34 92 120 150 111 111 130 117 124 128 124 129 130 137 131 130 113 114
94 68 26 27 22 28 19 -21 -13 -34 -4 27 80 15 35 15 85 94 98 114 98 78 79 123 125 77 61 56 84 76 118 103 64 95 84 37 103 174 144 109 103 95 86 82 87 95 103 115 144 158 153 149 117 121
80 121 77 53 65 67 53 31 -9 111 -5 15 29 13 23 25 31 18 44 64 38 60 150 171 140 88 97 92 58 90 46 61 84 86 66 52 142 153 101 78 79 73 81 94 113 113 121 149 140 121 104 84 88 98
84 93 93 114 131 116 79 151 159 13 -12 -2 -7 -8 2 5 70 48 89 89 118 140 122 115 86 70 73 74 56 61 64 45 25 27 49 53 86 86 103 93 84 84 103 108 94 76 72 75 84 85 73 71 68 72
134 42 19 89 115 130 136 103 12 15 11 9 1 -5 -9 26 26 33 76 102 91 109 122 96 92 90 104 87 89 75 70 44 32 70 53 75 128 143 119 86 82 89 104 92 61 57 68 66 67 73 73 76 79 82
144 17 63 64 89 125 109 58 24 -20 -10 -9 26 17 5 13 29 24 21 39 68 86 85 79 84 70 74 73 63 60 74 66 79 128 122 111 136 135 112 115 129 133 101 70 49 54 73 52 39 58 78 71 79 63
82 50 103 127 110 34 -9 11 18 4 -1 4 1 30 41 24 9 1 15 5 38 52 78 95 86 82 65 53 48 43 82 112 109 123 151 157 143 124 120 114 98 119 105 91 69 60 57 76 98 84 73 68 110 101
55 88 149 145 95 31 5 11 20 -2 -7 9 22 35 38 24 47 43 30 17 47 74 85 57 44 62 55 51 57 97 142 151 175 166 143 127 112 109 103 89 93 99 101 85 77 123 146 172 159 159 145 156 180 180
137 110 83 57 66 54 57 41 50 55 13 3 29 24 51 50 65 80 73 62 60 68 -18 -3 13 14 7 53 51 58 113 175 207 182 144 120 106 92 74 73 81 104 115 126 138 142 139 155 138 136 140 168 162 142
144 87 74 60 52 64 88 59 38 56 69 83 42 41 53 81 99 85 76 75 93 78 49 69 18 51 88 86 109 115 139 163 139 100 111 111 74 53 40 73 95 108 122 117 145 156 160 131 122 132 128 132 125 108
140 159 110 84 107 90 89 83 71 66 91 73 52 72 105 102 87 83 77 112 82 111 113 71 -4 -4 99 101 109 124 120 103 95 102 94 83 27 33 72 89 112 99 98 101 109 126 144 154 155 126 121 115 129 149
172 116 130 84 95 102 54 93 101 109 94 75 100 80 63 55 50 53 78 58 66 88 74 -62 -66 41 111 110 134 142 123 140 118 84 66 28 36 78 95 96 103 113 116 123 152 182 180 183 172 142 121 121 128 135
125 147 152 92 85 82 87 87 95 95 96 101 86 75 55 42 59 57 34 41 63 50 67 -26 -19 137 163 125 92 71 65 102 108 113 75 51 73 73 97 96 105 105 128 163 180 158 153 144 155 156 162 180 185 180
115 91 113 96 102 104 89 87 88 78 70 77 68 73 52 66 62 22 17 28 -10 22 67 52 54 54 41 0 -24 15 13 88 60 70 77 95 112 148 140 126 122 136 182 201 175 182 145 141 167 150 157 182 184 176
98 84 93 67 99 102 82 74 74 101 104 109 86 96 112 98 51 4 0 13 27 8 48 55 39 64 24 9 40 31 19 67 115 116 98 163 153 156 128 132 135 128 143 164 175 156 141 176 195 199 207 206 207 202
124 97 77 105 102 80 80 50 43 72 94 91 109 128 90 44 5 12 43 55 38 45 46 63 54 66 44 30 71 63 86 151 135 164 211 184 153 144 140 132 122 121 161 164 167 170 176 192 164 164 171 177 160 161
124 124 83 81 114 75 69 82 75 68 69 77 112 83 40 30 31 50 40 24 48 47 63 76 123 113 112 149 243 276 283 312 354 388 409 362 291 209 168 166 162 187 167 150 162 179 179 167 193 189 191 187 176 156
146 114 115 118 121 135 111 79 74 70 68 73 68 74 63 72 49 39 40 33 52 43 41 75 116 154 210 265 288 270 289 288 251 242 239 216 208 194 230 256 248 236 221 188 179 176 186 211 225 214 186 174 149 136
130 119 101 105 108 104 125 102 93 103 94 72 74 81 72 58 53 40 34 28 19 19 34 50 62 85 137 201 228 225 224 172 143 165 167 146 159 197 224 245 248 243 253 259 263 276 308 287 259 227 207 179 154 161
89 104 109 101 78 75 79 95 84 89 115 114 100 93 78 52 43 39 32 25 26 47 56 58 66 84 113 138 161 169 141 118 118 116 124 177 193 215 206 201 198 203 203 218 224 231 239 213 183 170 154 147 150 143
90 90 85 94 99 110 94 105 76 88 83 78 79 92 82 67 36 38 57 60 56 46 43 53 65 68 71 92 111 128 140 116 116 138 177 149 162 169 168 164 166 159 154 162 172 154 155 148 149 147 140 135 146 146
80 72 87 86 113 99 91 84 80 85 88 87 78 80 83 88 83 59 45 57 57 52 47 61 78 90 88 99 119 109 109 111 119 130 154 164 178 189 184 151 121 112 111 101 102 91 130 166 145 123 140 167 154 141

GFSWCAN_con_3kmhel_240.txt.gz
Helicity
58 58 37 24 26 16 30 20 -1 2 14 36 23 -11 -15 -46 -68 122 20 42 22 -151 291 370 395 268 365 425 462 450 444 423 431 477 519 477 455 466 429 372 345 370 371 336 380 430 259 401 372 326 338 432 360 292
45 30 43 19 6 23 25 19 21 39 51 69 8 12 32 61 36 57 -9 47 120 44 482 533 553 531 479 479 506 643 491 534 476 583 585 489 522 565 453 328 437 417 526 462 394 368 378 358 338 436 428 339 437 343
6 65 76 48 38 34 20 26 23 50 49 -7 39 214 17 47 -12 80 117 318 324 712 855 598 641 677 513 436 443 440 537 516 637 611 468 426 386 563 448 419 407 407 402 343 342 297 358 372 451 565 494 484 464 473
72 115 53 25 33 16 9 -0 32 38 21 76 146 169 196 282 282 338 570 475 580 752 699 756 632 705 488 351 443 390 472 571 627 719 657 383 443 491 442 383 391 438 416 399 260 357 438 426 502 447 469 409 116 -41
56 26 -1 26 26 1 -5 7 70 42 43 111 89 253 675 468 297 575 409 552 466 471 609 665 584 596 473 390 456 660 608 574 528 509 511 384 468 420 432 370 304 382 414 489 394 537 619 555 439 425 210 103 -6 -28
23 14 2 11 -9 7 26 52 22 57 64 56 35 167 487 669 500 498 411 484 634 454 493 587 523 500 475 540 381 438 443 567 650 579 476 390 350 412 436 481 250 362 358 306 241 127 21 -19 -32 -75 -41 -60 -16 40
18 8 -0 1 6 16 26 50 13 -12 4 -47 27 166 229 367 593 421 342 399 515 560 453 389 495 434 317 415 438 451 352 312 256 342 401 488 549 426 416 423 285 235 28 -37 -56 2 47 69 83 132 145 121 142 169
-7 26 3 -10 -9 37 39 11 6 11 18 4 -4 69 155 432 680 689 550 577 661 474 510 448 506 469 385 554 554 360 248 370 480 451 444 421 323 304 297 144 125 126 178 177 200 194 129 140 174 157 142 143 180 200
7 4 -6 -13 -18 -27 -19 8 29 29 40 56 25 63 69 289 482 433 347 357 452 408 394 352 460 533 311 434 529 478 397 464 276 367 279 172 182 116 105 105 124 185 180 165 159 172 175 184 193 210 184 193 171 177
39 39 37 59 14 -12 5 34 1 46 47 24 64 36 69 110 171 99 199 292 261 339 375 494 413 495 384 420 399 327 260 261 230 193 145 140 124 106 99 83 110 120 144 142 155 179 166 163 155 157 157 135 123 127
72 40 41 27 19 -20 -11 -21 7 47 60 12 27 59 21 98 62 58 74 123 164 213 160 167 156 208 177 214 232 183 194 171 218 158 132 120 155 133 90 135 156 165 180 176 141 117 127 113 105 108 133 159 173 174
70 61 53 13 48 33 -88 -105 46 15 77 -65 -40 3 40 52 54 66 107 84 98 81 100 89 95 185 199 153 167 144 186 121 148 127 165 152 139 132 201 193 157 134 125 121 103 108 113 120 120 132 146 159 174 178
90 48 47 83 75 34 -20 21 35 -3 115 9 51 47 42 32 91 98 108 102 70 73 79 89 165 157 167 158 146 145 138 142 108 185 155 121 127 157 194 172 139 104 105 106 123 151 171 195 200 186 184 160 148 132
118 113 71 67 86 43 -32 -5 121 69 34 -20 -40 7 8 37 36 44 78 25 10 37 100 119 174 131 127 145 107 143 103 118 154 135 86 42 117 143 121 112 95 95 103 99 125 156 173 176 157 124 105 86 89 88
105 112 82 91 142 92 147 143 123 57 51 -18 -17 -15 -26 -33 -18 13 20 32 50 99 109 120 122 73 110 96 94 96 116 112 73 63 32 93 134 135 120 91 111 100 106 106 114 112 114 92 84 69 41 37 42 51
116 11 50 109 114 159 151 100 6 6 11 -20 -8 -14 -33 -8 13 34 69 56 76 127 99 68 56 70 66 61 75 77 72 64 39 17 46 109 108 107 107 105 91 90 105 110 98 87 64 53 57 56 66 63 58 75
91 20 92 94 111 158 115 8 -16 -33 -36 -32 -31 -17 -9 -16 -7 -15 16 31 49 74 75 66 74 72 70 73 67 69 48 34 28 66 74 80 101 115 114 123 116 113 122 124 113 79 56 64 69 76 87 62 83 96
56 64 123 114 95 49 39 27 15 -0 -13 -10 3 2 25 18 4 -32 -23 18 36 67 76 84 78 83 69 47 46 41 51 69 77 66 100 132 142 119 129 149 124 115 105 82 65 79 65 46 56 70 80 85 96 101
80 111 165 145 82 46 25 10 24 12 7 9 11 11 3 9 -4 8 -4 -21 33 42 66 74 59 55 58 48 40 59 77 80 95 123 146 141 133 125 151 156 132 101 91 93 96 93 81 81 105 100 125 140 147 145
122 121 100 64 60 76 61 30 33 30 8 10 37 28 28 17 28 53 54 23 14 55 -15 -29 -11 -6 40 62 36 37 57 144 223 212 148 136 107 122 108 98 90 87 103 115 137 161 151 152 124 120 137 148 154 146
146 102 95 78 85 92 98 81 58 44 53 39 29 57 41 71 65 40 55 88 93 79 50 -17 -22 36 85 81 52 86 123 179 154 154 148 103 98 83 60 72 99 118 121 131 131 126 124 108 104 113 120 117 127 144
109 167 115 107 112 100 95 82 77 86 75 61 63 66 59 49 54 40 56 115 82 80 79 70 -39 76 76 68 67 57 97 130 126 128 161 159 119 70 65 81 104 105 112 105 113 117 107 106 119 112 115 110 127 141
157 142 134 108 103 104 61 106 93 89 75 51 95 84 50 41 15 71 27 28 35 67 113 61 28 86 94 105 114 122 128 152 129 110 114 93 64 47 56 73 90 102 92 92 113 120 127 138 128 116 131 152 164 170
125 134 119 77 79 77 86 89 82 90 105 96 88 79 55 34 52 54 34 45 77 111 85 1 126 122 114 92 47 47 72 103 108 74 78 82 52 32 64 76 88 87 92 118 139 153 152 142 138 134 144 191 184 183
116 90 97 83 79 89 95 86 78 74 60 74 105 75 47 56 53 49 27 2 -15 3 14 -7 56 29 -3 -35 -41 8 80 129 119 75 93 108 101 101 105 111 101 108 143 181 153 161 151 148 161 183 187 205 211 200
109 84 82 51 78 67 53 72 65 72 74 90 64 89 105 86 57 10 20 -0 -5 4 -6 11 47 27 -19 -25 -0 -1 46 107 158 88 50 96 91 94 94 84 77 84 103 155 186 173 161 158 181 202 191 192 210 217
126 95 51 65 82 63 73 64 55 76 75 75 86 116 87 39 12 6 26 30 16 6 2 11 19 55 22 -4 59 110 158 137 110 76 56 57 70 114 138 99 81 91 146 160 162 177 181 184 194 185 183 172 161 165
100 93 63 67 91 71 57 72 57 55 56 62 98 74 41 23 20 23 26 13 6 9 17 29 41 33 79 106 134 168 221 225 220 242 269 229 169 137 112 93 100 163 143 142 155 165 169 177 180 179 173 162 144 125
104 86 88 95 97 96 67 55 64 60 54 60 64 66 43 41 40 32 24 23 38 43 43 32 85 101 146 195 195 167 197 203 175 145 156 170 166 133 137 150 161 167 160 144 138 147 163 167 171 162 156 150 126 126
100 92 99 107 94 82 84 77 60 77 79 59 52 66 72 52 38 29 31 37 40 30 25 27 50 81 98 140 173 184 202 182 126 158 168 157 112 168 192 214 215 210 188 185 182 188 222 244 232 196 189 165 151 140
93 102 101 92 82 71 62 70 68 66 73 77 84 73 49 38 42 28 15 16 24 29 41 42 50 57 73 87 117 165 164 154 150 141 139 191 204 212 215 215 230 236 231 225 216 207 223 214 183 173 159 150 133 138
74 69 78 97 103 84 86 94 66 70 67 71 68 74 56 52 37 17 38 36 43 39 31 32 47 51 59 88 106 127 122 146 134 118 130 145 182 202 222 219 213 214 209 198 186 187 198 189 159 142 129 124 116 129
107 92 90 90 103 113 125 108 101 98 108 63 47 52 66 52 41 55 46 54 49 50 49 39 42 62 68 70 69 64 69 81 104 135 131 147 175 194 195 184 170 164 177 169 161 160 155 152 126 111 105 105 105 111

GFSWCAN_con_3kmhel_243.txt.gz
Helicity
53 61 42 29 17 13 8 4 9 13 25 15 -0 11 -24 74 76 46 -16 284 316 84 -50 -71 -54 -92 16 115 170 240 415 369 368 337 430 296 150 272 354 379 434 420 385 427 384 354 160 191 261 247 260 332 308 347
16 26 67 80 83 56 20 2 -6 -12 -6 -18 -13 -10 6 24 45 93 165 357 260 152 -124 -93 -93 -168 -59 100 194 249 308 395 421 585 560 402 319 428 338 296 406 354 378 300 240 282 235 247 295 375 310 392 396 370
25 74 61 29 11 27 19 9 2 14 9 6 12 -15 -15 54 60 53 43 398 332 39 -121 -65 -91 -41 128 55 332 313 453 297 437 560 531 461 361 493 479 459 446 425 411 375 381 362 350 379 435 429 446 426 468 470
40 42 7 14 21 -13 -5 9 35 43 44 28 10 -13 13 21 5 -33 341 402 223 97 -23 -194 16 42 89 196 363 341 269 363 464 545 440 436 382 382 344 422 388 434 434 443 420 440 394 334 283 337 428 419 351 392
43 36 22 10 10 10 22 37 50 21 57 89 72 31 48 -9 128 -11 297 267 135 126 -11 -92 160 336 339 190 180 228 317 366 452 341 368 484 412 388 397 366 320 391 418 465 440 547 345 338 373 376 351 256 302 264
35 37 23 -7 27 41 61 23 22 30 35 40 83 200 28 78 297 339 236 124 129 21 96 164 143 481 613 276 364 377 351 346 377 320 389 361 424 508 390 294 309 295 322 358 344 286 296 258 225 151 156 63 -26 -48
45 29 32 12 30 45 58 20 15 34 1 2 235 395 139 419 472 429 251 151 102 305 128 334 462 410 756 627 485 545 592 433 365 339 277 294 392 551 512 271 239 212 262 375 401 383 342 261 202 61 10 -24 26 149
38 42 48 36 37 32 8 13 18 16 -5 97 301 555 226 167 255 332 368 318 359 408 50 216 452 431 314 767 665 553 592 539 689 552 537 421 454 319 228 188 294 303 318 256 189 169 148 128 109 129 152 187 265 261
45 24 53 52 22 8 6 19 48 38 65 137 335 433 585 333 185 274 464 348 170 105 100 256 354 348 377 577 508 488 330 337 351 367 354 381 335 171 181 297 305 311 225 197 238 239 256 255 255 266 238 242 231 209
57 47 39 54 21 -6 12 48 64 68 140 104 183 393 536 497 588 648 415 256 222 151 89 121 246 262 234 350 448 383 370 361 270 326 308 329 257 306 244 234 195 189 195 169 212 210 205 208 200 206 206 186 179 183
73 60 34 58 36 46 63 79 87 78 80 50 103 220 278 295 484 430 298 309 270 233 206 349 395 261 412 353 469 352 308 317 326 318 340 314 320 265 184 222 220 217 235 260 241 211 182 142 134 141 156 160 156 158
103 74 84 58 55 41 44 29 36 84 108 79 113 108 66 52 173 226 364 326 208 309 309 294 369 480 497 520 410 353 391 351 283 279 398 356 306 212 214 201 199 190 204 196 161 145 136 139 125 125 130 149 158 162
79 97 68 90 80 12 42 39 123 160 106 75 69 75 57 45 74 127 278 253 277 291 298 331 443 366 350 376 521 430 490 518 192 346 344 249 173 175 211 207 197 172 149 129 130 117 112 116 117 122 147 155 157 154
97 84 63 81 70 72 102 103 129 78 21 46 84 132 68 97 128 107 77 73 83 83 115 141 206 168 190 206 155 235 180 156 275 251 213 112 116 148 176 150 142 109 102 98 85 85 99 129 156 161 136 104 98 89
104 74 48 59 83 98 125 158 110 42 39 -17 -2 62 44 52 55 46 50 76 100 100 113 129 170 155 158 116 116 93 123 150 115 125 108 98 116 130 137 144 123 99 77 84 101 119 134 142 132 112 82 69 70 72
95 52 35 88 98 129 120 55 37 38 21 -17 -19 -51 -7 4 28 46 74 93 79 63 61 94 116 120 131 115 123 128 111 126 95 76 78 114 131 138 121 94 86 95 103 122 129 128 137 122 91 81 86 92 91 93
63 17 87 87 102 133 82 24 18 -20 -15 -28 -33 -26 -26 -0 16 26 40 75 61 50 46 53 81 103 64 74 80 57 67 58 31 47 66 75 100 96 101 93 96 107 123 149 136 121 111 92 95 105 112 89 105 102
48 59 115 111 85 49 33 30 6 -11 -16 -17 -5 -7 -3 -12 -18 3 3 9 41 59 55 52 44 63 52 45 52 45 49 55 90 72 87 93 118 118 116 108 80 90 117 124 112 105 92 90 86 82 99 100 100 94
72 98 149 131 58 32 33 24 24 7 -6 9 8 11 13 -7 14 29 44 42 25 3 13 48 57 58 55 34 30 28 17 39 53 70 92 110 128 125 118 122 117 118 116 100 89 84 67 57 65 97 110 107 101 108
102 102 124 79 65 68 55 34 35 29 21 10 14 19 19 23 30 54 76 60 57 62 30 -24 -13 13 41 45 21 27 42 83 126 146 134 135 131 134 111 115 116 104 115 117 128 145 134 132 119 115 109 115 127 115
125 101 110 88 98 94 78 60 63 45 42 39 36 44 40 34 40 41 45 76 77 57 43 49 57 45 26 78 57 63 81 106 103 95 109 123 98 119 132 128 129 127 130 134 146 130 117 99 96 100 110 110 118 135
105 158 117 110 108 99 86 74 71 67 64 51 61 55 42 46 44 44 75 71 27 29 35 46 52 1 -6 24 27 44 79 133 134 121 166 164 110 114 102 93 125 126 121 124 119 93 87 97 105 117 126 118 136 139
135 138 130 117 100 100 62 93 84 72 66 45 77 61 31 28 29 64 31 14 4 28 28 92 82 65 72 84 83 89 108 131 132 103 109 143 139 115 99 104 106 127 133 106 90 91 101 125 140 141 135 141 157 157
121 125 114 88 98 93 96 97 94 99 94 77 72 69 42 32 43 31 9 24 56 74 93 72 109 127 130 115 106 99 95 119 139 127 136 150 112 95 95 95 94 91 86 94 103 113 127 153 160 144 141 156 148 153
119 100 103 99 106 110 109 101 93 85 65 78 100 74 38 50 36 26 45 32 16 38 6 14 34 50 -41 -47 -34 -31 95 91 79 69 53 124 150 126 114 109 100 98 127 152 117 134 140 142 143 142 147 154 159 160
125 109 99 73 95 80 77 82 78 69 74 85 57 64 78 67 41 15 23 25 35 16 23 -18 -41 -27 -28 -1 36 35 -10 63 120 119 29 68 94 129 103 89 81 60 65 108 165 156 145 125 131 146 143 155 177 184
137 122 92 86 87 78 91 93 86 104 90 77 72 87 75 41 23 24 23 25 33 17 10 6 18 -2 -2 -17 -15 68 85 81 85 78 63 69 115 134 107 90 55 51 104 115 138 149 157 136 138 143 162 166 152 152
106 91 73 76 88 82 86 100 87 68 77 71 94 72 47 32 33 29 27 17 9 26 17 -4 19 39 38 2 61 118 172 193 191 197 214 181 147 136 151 134 84 126 135 135 150 150 140 142 136 152 165 156 127 105
101 94 92 94 104 96 71 69 68 64 63 70 72 61 48 50 44 39 33 26 31 31 26 32 16 49 101 130 126 111 165 188 194 139 114 105 101 76 101 116 114 126 141 141 124 126 126 127 127 136 144 142 119 123
95 89 107 117 98 89 78 69 79 73 73 65 57 60 54 54 51 51 54 50 42 33 6 9 51 70 78 98 117 109 132 110 84 104 117 100 74 128 153 172 166 161 169 180 180 172 194 208 195 180 174 170 157 140
121 126 121 110 95 94 84 75 83 79 86 81 82 63 49 41 46 45 45 40 32 41 42 40 51 70 72 76 91 112 111 112 112 118 126 145 183 193 180 186 190 198 204 211 195 170 172 173 167 159 145 138 125 132
100 88 94 112 113 95 104 107 101 91 99 83 81 77 60 53 47 30 43 39 36 31 34 30 42 46 45 57 84 99 80 114 124 126 130 142 175 186 196 218 220 216 212 192 167 158 172 179 147 128 113 111 104 108
99 103 103 108 118 103 116 122 114 100 109 95 77 65 70 55 46 42 42 64 45 50 51 50 35 31 42 51 58 81 104 126 138 131 98 131 192 202 212 217 211 202 203 172 154 147 150 152 127 107 102 96 89 94

GFSWCAN_con_3kmhel_246.txt.gz
Helicity
54 59 44 14 31 39 59 71 44 21 26 16 30 43 55 53 15 69 3 101 369 424 356 246 224 114 26 -14 34 73 150 152 203 206 298 542 302 263 324 199 276 298 302 333 293 265 210 186 314 324 243 201 125 163
22 24 -3 18 10 -15 -8 66 64 32 18 7 20 25 43 46 15 70 40 70 162 349 251 148 165 91 39 29 -23 54 103 276 189 276 309 409 334 311 286 309 390 226 254 277 276 292 254 325 294 315 249 237 228 289
21 -8 -1 -5 -6 -5 8 24 23 40 30 24 12 -4 11 24 25 40 98 133 209 251 407 283 91 24 8 -39 -24 -30 -185 38 251 307 261 325 215 242 288 327 419 391 327 290 307 342 340 322 386 350 289 242 270 250
-13 -1 1 1 -3 -9 -8 0 -8 28 39 30 23 25 25 27 14 16 70 176 105 231 230 86 83 -6 -4 -41 -49 13 -20 -54 29 217 232 200 133 183 220 311 286 334 297 291 330 392 481 330 198 187 219 264 265 222
-7 2 9 1 0 -3 16 20 35 36 25 29 26 22 53 51 12 15 11 21 144 265 129 93 132 30 5 -71 -62 -152 38 37 45 134 275 216 229 211 315 327 313 386 372 374 318 304 352 311 281 255 193 179 160 153
18 10 12 8 14 13 13 25 20 11 20 45 1 131 55 127 52 134 204 185 125 440 142 -68 -61 -14 -10 -71 -2 166 104 130 72 170 245 247 282 268 240 270 291 326 329 298 261 322 339 288 315 314 246 179 188 217
46 37 44 25 18 -2 3 30 24 10 6 58 129 248 152 128 208 142 52 -7 105 285 25 -60 -60 50 -10 38 127 106 102 136 40 96 153 219 319 334 241 248 185 246 316 366 324 438 418 302 189 148 167 233 215 205
44 46 57 50 25 17 9 18 23 17 26 108 123 248 371 389 361 292 113 179 266 187 -21 -20 0 6 90 196 248 262 273 268 243 156 166 171 240 257 99 136 268 289 295 304 274 365 304 248 304 303 248 280 320 319
54 46 58 57 23 13 29 54 36 60 79 112 186 248 287 500 537 361 67 196 249 108 -27 -86 68 63 42 292 255 274 245 284 192 237 283 326 322 216 213 188 240 355 308 322 319 381 362 375 329 299 273 271 237 196
63 73 71 52 41 46 38 53 35 43 18 194 46 127 199 236 264 290 154 95 81 56 -20 -109 -47 16 130 288 368 282 206 160 148 205 275 256 230 342 261 166 133 224 322 295 339 359 341 317 279 246 217 204 190 190
71 68 77 50 51 52 25 43 116 57 68 359 246 208 214 156 242 169 81 97 87 23 -36 -38 119 187 150 205 656 391 382 319 325 269 303 278 279 343 303 298 287 344 315 293 316 259 202 170 167 184 198 192 182 179
67 63 67 49 48 33 53 149 191 26 38 50 119 148 252 154 102 101 142 114 91 62 97 135 135 149 209 165 204 202 201 243 214 269 343 224 252 182 247 307 350 324 304 277 239 223 198 182 154 154 156 169 167 167
64 88 88 53 69 75 96 169 136 69 5 -4 13 68 140 130 170 158 207 211 98 125 165 258 290 323 344 266 258 189 138 159 140 152 116 167 222 260 300 312 330 277 252 245 222 201 180 168 146 141 150 153 166 175
59 59 70 47 74 109 144 141 94 -7 19 42 47 72 49 75 111 130 161 205 198 205 308 368 401 294 340 311 259 264 259 229 265 219 251 248 204 231 234 221 208 188 182 167 149 133 131 135 147 153 153 141 143 158
76 66 30 23 78 110 129 101 51 -13 24 4 51 89 107 76 43 39 40 25 42 39 75 122 173 230 288 260 244 247 265 267 235 275 223 144 135 161 183 165 156 127 109 107 92 99 111 125 135 145 143 130 113 99
95 58 21 55 69 127 129 62 23 49 40 7 -16 -32 24 38 67 58 89 57 53 55 40 56 89 116 160 128 177 221 216 225 152 101 74 109 125 131 135 123 110 85 89 84 75 76 95 115 132 152 147 128 107 88
72 22 88 80 75 106 66 25 24 -6 -10 -29 -31 -5 -7 2 -8 8 43 60 35 40 94 95 105 99 77 108 138 75 102 70 50 48 40 51 102 123 118 103 88 81 94 92 93 117 148 153 143 120 127 97 110 108
37 50 115 116 72 31 23 29 22 11 11 -8 -3 -15 -14 -1 11 32 52 53 17 1 20 35 35 60 77 84 98 60 54 57 51 49 68 101 129 109 85 70 59 51 104 130 144 147 127 110 106 102 109 105 109 85
65 88 122 122 52 28 34 37 39 17 9 -3 -1 16 9 14 24 35 33 31 12 5 31 51 55 65 66 47 27 24 25 44 55 77 96 95 108 94 72 67 77 96 129 141 141 120 97 96 91 92 92 82 76 78
89 90 98 89 63 47 42 32 28 31 22 20 22 24 27 26 27 53 68 62 44 43 51 45 38 37 70 67 38 44 34 50 78 99 92 103 114 113 97 101 86 99 145 159 149 149 140 136 116 110 92 90 90 75
109 95 114 86 82 74 57 49 53 41 35 43 26 25 32 35 42 48 54 56 48 37 37 43 54 55 29 17 -1 17 54 59 62 66 78 101 95 131 134 131 118 130 125 110 110 113 113 97 97 86 87 92 103 100
87 146 104 97 90 83 74 70 56 59 65 52 60 56 51 50 46 35 36 42 12 9 15 58 76 73 75 71 48 24 59 86 99 100 148 159 131 136 136 133 133 109 91 87 107 108 100 81 90 104 116 118 127 113
125 133 122 107 89 94 58 85 74 64 64 41 58 52 41 50 52 55 55 36 11 10 12 41 71 77 85 83 87 87 66 91 92 92 92 109 125 122 122 113 96 129 114 97 119 116 91 80 116 133 131 130 130 127
112 121 119 93 95 84 87 95 102 95 97 74 66 48 30 33 33 29 19 25 38 58 44 80 115 113 123 109 87 73 78 106 131 128 108 142 126 100 93 101 95 87 106 138 130 114 111 122 150 141 124 123 117 120
122 110 116 116 109 102 102 96 102 96 87 89 101 70 31 44 33 19 33 32 42 56 55 58 60 54 72 66 107 113 100 101 114 101 89 126 137 137 118 117 110 107 140 166 124 128 126 137 140 129 117 124 128 123
131 122 110 77 102 88 80 81 78 75 87 98 74 79 75 61 36 24 29 30 35 49 68 73 23 26 59 60 80 80 75 100 138 124 84 82 99 116 119 128 107 73 59 100 144 128 134 135 140 134 124 125 146 163
144 135 109 91 100 94 110 110 96 116 105 88 81 83 75 60 29 29 31 27 31 37 41 31 21 -5 27 76 99 109 116 96 83 74 54 56 80 95 112 111 61 45 85 100 119 140 147 134 131 127 133 133 123 129
111 108 87 89 104 94 86 102 100 86 92 94 111 84 50 41 46 38 28 16 4 18 19 11 26 50 32 53 83 118 118 123 151 182 207 208 158 121 135 154 124 122 121 110 115 134 140 156 149 148 145 133 104 89
110 103 94 101 115 103 90 93 88 87 84 87 90 92 78 79 73 65 63 46 30 30 21 27 35 44 69 92 73 74 103 113 173 159 151 116 91 68 111 154 124 125 139 151 128 125 133 137 136 132 131 133 112 120
112 101 112 119 103 95 96 82 86 76 86 84 75 86 92 89 83 70 68 55 45 38 19 26 39 53 52 44 58 74 107 96 104 122 119 66 -11 55 103 135 152 149 160 186 210 216 218 221 198 200 192 179 157 136
141 130 132 118 102 116 111 103 102 105 110 109 101 87 76 66 63 71 71 64 60 46 56 46 48 64 60 64 60 65 62 59 65 77 107 131 137 153 149 160 173 186 189 214 208 190 186 170 168 162 147 135 115 121
137 131 125 130 130 130 134 134 126 113 122 105 101 94 74 71 66 59 79 63 43 48 50 55 72 62 36 35 57 78 42 57 63 92 101 104 131 176 216 222 214 212 209 200 185 173 169 167 138 118 104 103 97 97
127 134 136 127 132 126 137 143 143 124 112 106 87 85 93 83 72 84 81 87 61 64 51 47 49 43 43 47 49 60 83 126 147 131 125 142 176 192 216 225 206 200 213 197 175 157 147 144 122 104 93 91 83 80

GFSWCAN_con_3kmhel_249.txt.gz
Helicity
26 13 9 3 4 5 43 -5 -18 44 90 100 74 59 57 55 63 101 164 183 139 198 73 11 138 398 248 228 180 77 38 -32 -32 -6 -144 -121 260 188 168 191 298 285 267 324 370 222 84 117 232 215 225 270 229 199
35 20 26 31 33 15 28 1 -2 2 6 73 74 55 40 47 49 94 139 264 254 223 140 58 156 234 213 266 222 149 78 -6 -41 4 -78 -4 27 102 124 221 197 196 262 330 374 345 249 214 248 281 236 211 163 190
31 19 6 31 4 25 17 -4 -2 -13 -12 20 53 60 66 58 56 59 136 300 307 196 193 148 124 151 327 224 192 126 98 18 -170 -173 -88 57 73 243 201 149 243 309 328 276 329 300 288 266 238 207 238 271 227 208
14 5 18 21 3 18 14 2 -5 -8 44 41 34 20 19 47 53 61 102 269 259 198 196 75 132 285 210 181 212 137 45 -3 -76 -11 -38 -156 49 95 180 177 188 215 235 164 178 268 327 296 266 288 316 274 218 118
26 52 -4 10 12 11 8 19 2 27 36 27 29 31 32 28 18 18 73 175 238 214 133 155 124 82 192 274 161 73 80 -7 -95 -152 -126 71 127 100 208 208 151 190 172 189 204 230 290 206 150 167 178 105 116 141
32 48 33 17 5 1 2 26 5 16 30 27 39 39 59 41 18 52 114 87 204 152 198 145 87 111 112 176 155 106 56 39 15 -91 -139 60 142 115 129 139 159 144 142 178 149 171 251 71 168 212 185 206 290 347
44 42 42 44 24 21 13 26 15 18 29 39 13 86 13 111 108 251 193 44 234 264 233 104 -10 75 155 203 76 4 -45 -62 -29 97 -33 129 200 220 164 60 44 95 220 227 264 324 280 164 162 207 266 329 401 386
61 47 53 51 25 2 20 33 37 7 40 5 50 107 251 120 321 121 176 16 206 340 65 -25 -26 -72 154 108 40 91 -15 -37 64 42 -15 -0 114 314 194 168 172 208 236 283 289 289 215 327 298 301 330 278 213 200
44 53 60 56 41 29 15 27 86 42 2 17 28 78 59 266 286 277 -3 132 228 143 -11 -97 -100 -22 -5 52 113 125 60 81 43 116 137 38 32 78 63 98 106 132 213 213 298 327 346 397 347 294 331 291 295 263
41 48 51 37 37 34 11 76 62 38 160 41 -36 -0 82 176 98 19 90 50 36 -9 -50 -97 -80 -11 -27 44 82 123 156 149 118 88 146 153 98 123 110 87 117 199 255 311 363 323 348 361 314 247 293 257 250 254
50 50 58 60 49 36 49 107 99 -7 47 62 71 109 99 85 -5 1 15 21 -24 -57 -68 -38 -50 -50 35 36 65 139 128 133 96 121 145 86 103 132 160 189 230 244 265 281 272 272 244 246 269 290 276 260 243 218
63 70 79 57 66 87 104 138 70 10 -14 49 62 105 138 18 11 26 15 7 -20 -42 -27 31 77 11 -16 33 48 108 134 200 157 140 107 64 87 120 211 323 409 391 412 398 326 269 271 263 249 251 231 222 210 198
39 78 78 62 72 113 138 121 33 9 26 15 87 86 30 3 -25 -10 -9 -8 13 -30 4 40 109 91 69 101 79 93 94 167 166 196 184 181 140 228 288 354 398 295 289 318 295 289 265 234 205 196 203 194 205 222
33 52 58 44 65 126 169 122 30 24 14 8 20 136 94 68 -15 -15 20 21 33 65 98 145 158 108 91 93 87 106 116 83 94 79 77 101 168 232 283 259 213 254 277 250 229 213 209 198 201 192 188 184 187 202
72 65 36 5 71 97 142 113 25 11 -6 -10 7 -33 74 57 68 65 29 76 122 137 180 167 151 113 128 111 95 121 117 92 64 91 99 141 174 214 224 203 207 191 178 173 153 157 166 179 202 207 190 175 159 142
85 69 27 68 79 120 144 74 -6 -4 25 1 -5 -1 14 27 45 52 63 47 21 44 70 78 109 123 120 95 96 113 110 94 80 90 90 126 151 149 139 127 123 124 129 133 135 146 158 158 153 158 157 146 130 110
70 26 82 98 105 138 75 29 3 -10 -17 -31 -31 -14 -23 -25 -0 -7 -1 10 7 18 46 53 77 75 70 105 127 89 74 50 23 36 30 13 58 87 93 98 88 92 92 104 127 141 159 155 153 161 168 121 132 120
39 50 109 119 96 50 34 33 22 16 15 -9 -13 -31 -26 -27 -29 -12 -14 -20 -29 -13 16 42 25 57 74 71 62 14 3 -0 14 17 45 63 81 80 75 75 88 91 100 111 128 135 128 112 115 117 107 93 105 89
57 95 107 108 66 43 52 54 49 39 19 3 -3 -8 -5 -15 -8 -5 2 -0 -9 -16 12 24 34 53 55 35 24 -0 -15 -5 16 61 86 78 78 76 74 70 92 97 113 114 113 100 87 78 79 60 55 50 59 37
86 93 100 99 60 49 50 46 45 49 37 20 23 24 20 12 8 20 23 23 22 18 27 39 41 48 43 34 27 2 -5 6 63 100 97 91 74 79 80 73 79 103 134 156 156 139 132 116 77 60 51 49 48 39
92 92 117 87 78 70 58 55 57 44 38 45 34 36 35 30 24 15 16 20 19 26 42 46 53 57 60 53 20 2 1 -25 6 34 46 77 76 91 89 89 93 108 144 153 147 117 94 77 70 69 68 54 66 78
74 133 97 95 88 87 73 71 64 56 57 42 50 47 44 41 33 23 17 29 23 20 36 50 57 70 82 94 66 27 21 28 43 101 143 139 119 116 114 110 108 99 97 94 91 93 101 92 88 85 94 100 106 80
113 121 109 99 90 95 62 89 80 77 64 47 60 54 45 36 28 27 16 12 23 50 47 45 56 60 70 85 96 85 54 53 49 49 77 101 109 121 128 97 84 114 93 83 99 113 104 90 107 119 120 113 93 86
106 114 115 100 101 82 83 93 96 94 90 69 64 56 46 46 36 24 15 17 34 58 58 59 68 76 95 90 83 65 67 67 84 89 75 121 126 107 102 87 75 64 77 97 126 131 108 93 108 114 95 88 78 97
115 109 108 119 108 94 99 97 103 97 90 82 88 72 43 49 42 30 27 22 41 50 46 32 18 15 40 92 106 90 78 81 91 78 66 104 138 138 126 114 108 95 123 165 148 130 107 96 93 94 81 87 105 105
123 117 108 80 105 86 83 87 83 82 95 102 72 86 72 61 50 33 29 37 33 37 42 40 16 -7 -9 23 72 60 61 89 126 103 79 93 114 136 115 115 114 82 58 118 160 122 105 96 109 107 89 97 118 131
131 122 115 92 103 99 114 109 93 112 101 75 73 85 73 66 39 47 51 48 39 31 27 24 33 37 -21 64 66 77 75 84 78 61 61 55 75 101 133 88 35 37 68 97 111 123 123 113 112 99 103 92 97 105
105 103 90 96 111 97 84 101 99 85 86 80 104 86 56 50 61 65 47 45 33 13 19 17 15 13 -6 38 77 101 156 168 170 181 194 177 140 121 126 112 98 120 89 72 88 84 112 137 128 115 114 111 93 80
104 99 95 105 121 103 84 81 83 83 89 90 105 105 93 97 79 76 78 69 49 39 38 29 25 -3 44 51 50 67 87 119 154 130 104 74 61 45 62 100 114 114 126 133 111 104 123 137 119 117 122 119 105 99
105 100 112 114 106 97 92 90 95 90 97 96 85 94 109 116 128 111 100 80 62 47 29 33 34 15 22 41 42 -0 30 67 54 75 84 19 -22 46 76 106 129 129 160 188 202 202 210 211 192 178 180 171 139 112
142 124 128 112 101 120 109 106 103 109 115 113 108 109 110 102 109 117 113 94 68 60 52 50 51 52 36 15 23 -9 -9 14 39 46 79 133 119 106 88 105 120 139 157 190 196 192 189 162 162 165 155 139 110 108
153 127 121 126 127 131 137 137 136 135 136 120 111 99 94 94 86 74 108 99 70 71 67 57 62 69 58 60 61 64 79 76 48 50 77 104 114 141 159 157 153 163 170 165 161 174 180 183 150 132 119 111 96 82
137 139 153 140 139 144 146 150 147 128 124 109 100 111 114 100 83 85 94 111 75 77 76 76 59 45 35 39 58 63 73 70 99 82 83 98 126 169 190 193 195 196 198 173 158 159 160 152 128 115 110 100 84 69

GFSWCAN_con_3kmhel_255.txt.gz
Helicity
39 38 31 37 30 8 7 22 26 39 43 42 50 52 61 65 79 138 200 96 175 264 194 139 91 66 41 83 87 66 69 70 114 104 92 94 104 74 59 35 67 101 209 193 103 64 19 63 64 40 83 76 74 63
32 35 37 27 18 9 23 24 35 25 25 34 26 24 52 55 38 75 186 248 198 251 293 76 99 46 69 35 48 67 95 99 87 130 127 103 120 123 85 41 43 46 71 66 -85 148 172 85 49 38 12 141 125 110
48 41 16 22 26 34 23 26 17 9 12 6 16 34 57 59 49 54 134 281 336 284 236 142 144 133 89 69 100 77 71 46 55 61 54 86 101 151 93 50 17 33 48 -5 -131 -45 123 70 73 16 175 104 77 107
40 27 26 24 40 43 48 29 15 10 19 25 6 8 28 42 26 10 124 271 361 374 301 193 122 125 148 145 100 77 66 47 51 60 90 124 151 194 70 17 -30 -13 38 -2 8 -99 -64 -63 147 115 110 149 162 87
44 42 48 44 57 64 69 31 10 9 19 21 20 17 35 40 37 55 69 215 331 273 187 120 102 166 74 101 120 64 83 65 56 58 148 181 194 136 159 4 -112 -77 -166 34 -385 -248 -108 -102 73 145 179 231 170 73
38 49 49 58 59 66 55 25 14 11 8 14 -9 24 48 57 62 99 122 94 237 316 236 152 121 128 77 88 92 63 55 83 76 93 115 115 -47 -30 -177 -183 -84 -88 -79 5 -267 -165 -100 -79 70 115 187 230 265 309
45 57 61 62 64 60 47 31 3 -3 11 7 14 58 74 66 110 209 145 181 209 293 191 171 165 156 134 146 125 156 117 89 80 116 45 -50 -53 -48 -134 -80 1 -68 10 50 -10 -74 -8 95 148 153 212 313 414 477
48 53 61 63 65 47 40 19 7 12 7 7 -12 13 58 59 73 113 66 159 169 238 165 174 114 129 89 87 78 91 34 52 112 156 73 -49 -61 -91 -132 -71 4 68 19 140 287 109 245 95 164 286 318 346 388 401
48 50 52 51 49 43 28 30 30 14 25 -46 -22 20 42 24 45 62 46 96 129 113 55 68 58 19 123 79 102 121 129 93 116 -38 -8 -25 -28 -121 -180 -38 5 -4 15 251 306 86 81 142 222 242 323 363 352 350
40 48 53 47 50 49 35 79 67 51 51 -35 16 17 7 19 131 84 2 3 -18 21 -3 31 -7 44 83 113 115 123 104 192 105 77 3 -100 72 107 71 8 28 10 214 51 4 77 129 170 206 233 259 339 386 377
56 55 56 65 64 62 74 87 74 56 -12 -7 16 8 45 31 22 10 20 35 10 15 63 108 50 23 5 77 71 60 -9 -24 19 12 36 31 162 81 77 143 71 83 135 96 67 126 167 175 245 331 427 384 353 354
60 63 59 77 63 52 69 92 73 -6 1 36 38 76 13 -33 -5 33 54 20 -16 33 24 38 30 17 -4 4 -24 -31 -1 -45 10 -3 1 -0 -16 35 46 34 85 58 102 122 198 268 292 321 377 420 383 388 344 283
52 62 63 79 62 71 72 84 60 16 -13 5 42 36 12 16 -2 10 36 43 21 42 35 47 71 39 36 -5 -12 -29 -12 9 -21 -11 -9 25 59 98 206 296 333 271 257 318 350 422 430 455 434 370 380 322 249 195
57 60 65 59 65 43 74 77 47 9 -11 -4 14 36 15 21 -4 -2 6 6 54 -9 -66 -67 8 8 37 17 -3 12 -1 5 10 1 15 -4 16 103 149 166 247 286 315 348 383 384 366 412 416 338 267 172 173 198
71 77 70 65 34 50 70 74 29 31 -11 -6 -6 5 27 46 36 37 39 17 25 37 49 11 34 1 23 1 -9 -8 -18 5 3 15 32 31 73 157 171 204 267 284 292 300 283 292 255 221 208 193 174 171 176 167
86 140 38 71 59 73 85 64 16 9 8 -19 -13 -3 18 51 42 27 9 -1 -15 -8 -6 4 28 24 -7 16 25 7 21 17 42 23 21 42 95 143 149 180 223 244 285 264 219 204 175 182 197 189 162 163 173 158
154 53 85 77 86 129 75 34 22 11 9 1 -12 -13 -5 21 16 6 -8 10 19 -10 -17 -6 -8 -0 12 2 7 28 38 44 38 47 43 60 83 109 137 165 165 160 160 108 105 130 153 128 138 162 199 159 153 139
141 73 44 102 123 89 55 49 43 18 8 6 -4 -3 -5 -22 -15 -16 -17 8 -3 3 -7 -4 -11 -0 14 29 35 26 21 32 41 39 55 58 50 58 76 101 101 72 73 115 144 97 95 120 154 154 140 110 105 91
98 92 107 112 118 106 78 56 66 27 29 35 30 12 -2 -18 -30 -36 -25 -0 -10 -36 -34 -19 -12 -1 15 20 26 23 20 6 22 24 28 10 2 29 33 45 55 66 70 81 77 90 94 95 100 94 80 66 68 50
116 115 98 111 99 104 87 74 77 60 36 51 52 33 26 9 -4 -19 -17 -25 -32 -24 -15 -15 -11 -11 -10 -0 9 22 5 4 31 38 29 19 26 41 40 44 41 53 67 66 86 103 106 106 90 73 65 62 64 62
114 99 120 92 86 104 117 87 91 83 70 77 74 58 60 43 35 22 10 20 4 -7 -4 10 16 15 10 8 19 45 26 -0 -5 -9 29 41 29 40 47 52 64 68 86 99 103 117 105 105 98 98 88 101 86 76
71 115 124 108 132 105 105 85 113 77 82 77 90 72 68 65 55 47 46 38 29 20 27 38 44 46 43 45 34 24 12 7 28 50 49 63 59 65 73 74 90 97 104 112 118 128 128 123 124 120 124 105 86 83
107 95 118 125 123 117 105 106 87 83 87 69 82 82 70 64 64 56 55 51 57 52 57 62 67 80 70 52 57 50 24 28 36 48 65 60 64 77 83 77 90 104 118 132 135 155 158 144 134 134 109 86 80 83
86 133 141 124 129 141 122 146 157 113 114 79 84 92 74 70 66 66 50 52 76 75 77 72 56 53 63 59 50 52 52 57 63 49 65 87 84 75 75 81 76 79 105 138 135 152 144 134 127 102 85 76 72 57
175 125 132 143 155 135 121 132 151 131 128 108 103 110 79 72 68 65 50 51 62 77 69 63 49 39 30 37 56 56 54 60 58 63 63 74 96 97 104 88 74 91 125 154 157 142 139 134 105 91 75 67 61 64
191 154 154 129 143 132 129 128 114 124 143 155 99 120 95 85 72 46 60 86 73 65 67 70 66 46 38 36 29 33 32 55 74 64 60 69 76 118 142 149 147 112 90 138 154 151 131 100 93 82 73 74 70 69
196 169 171 150 175 151 149 145 126 142 138 117 118 121 103 85 53 77 75 96 87 71 51 45 46 48 61 75 95 101 74 70 81 57 64 75 66 80 101 128 158 130 131 114 107 137 139 105 91 78 81 71 58 59
175 172 137 125 158 122 130 132 124 121 133 119 100 118 100 105 99 81 85 92 79 60 44 34 28 25 31 30 51 62 106 129 151 153 147 147 120 95 89 60 96 156 122 107 125 134 123 118 109 99 87 70 65 73
139 120 113 115 130 132 125 119 128 138 137 118 119 145 128 122 102 91 91 79 68 58 52 42 30 29 27 36 50 43 50 61 75 63 54 68 93 108 131 133 134 130 116 122 131 143 132 115 112 114 96 73 80 92
108 89 102 99 128 111 121 148 118 101 145 176 135 113 119 127 138 126 111 100 94 85 69 61 51 40 40 43 51 59 42 42 88 23 45 55 66 115 123 122 113 122 125 133 160 165 155 153 158 144 119 110 102 87
107 89 110 100 117 117 97 89 91 110 128 119 133 103 124 117 129 153 147 134 104 72 61 67 62 76 64 53 50 37 23 17 41 81 77 78 100 103 116 116 106 125 140 161 176 162 153 127 118 127 115 98 90 81
108 95 92 100 93 98 104 108 108 116 108 113 126 109 105 113 131 118 141 150 97 84 87 87 84 80 79 64 47 29 32 40 27 28 29 48 67 97 140 143 135 147 154 171 175 152 124 125 126 115 97 89 91 77
137 124 152 115 104 114 130 136 128 129 129 135 136 129 146 144 123 111 115 139 106 85 73 65 63 62 63 57 49 61 44 36 35 18 14 21 59 101 137 137 141 137 143 157 153 142 118 110 106 104 98 98 93 85